User: anonymous   Login
Location: Unspecified
(0.0000°N, 0.0000°E)
Time: 10:11:39
(UTC+00:00)
Language:

ZHOU ENLAI - Orbit

View from above orbital plane
View from above orbital plane
View from above satellite
View from above satellite

Ground track
Ground track

The orbit data is extracted from the following two-line orbital elements,

1 43156U 18008B   19343.92517706 +.00000649 +00000-0 +42709-4 0  9998
2 43156 097.4758 052.5317 0016441 084.1206 026.5404 15.10886318104109
Epoch (UTC): 09 December 2019 22:12:15
Eccentricity: 0.0016441
inclination: 97.4758°
perigee height: 522 km
apogee height: 545 km
right ascension of ascending node: 52.5317°
argument of perigee: 84.1206°
revolutions per day: 15.10886318
mean anomaly at epoch: 26.5404°
orbit number at epoch: 10410

The dashed part of the orbit path shows where the satellite is in the earth's shadow,  

DLR